Lid_Strength_Index
-1 -1 -1 -1 -1 -1 -1 -1 -1 -1 -1 -1 -1 -1 -0 -0 1 3 5 3 1 -0 -0 2 3 4 4 4 4 4 8 8 8 8 8 7 7 6 5 6 5 4 5 3 1
-1 -1 -1 -1 -1 -1 -1 -1 -1 -1 -1 -1 -1 -1 -0 0 3 4 2 1 0 0 3 4 5 5 5 5 4 5 7 7 7 7 7 7 7 7 7 7 7 6 4 2 2
-1 -1 -1 -1 -1 -1 -1 -1 -1 -1 -1 -1 -1 -1 -0 1 4 4 1 1 1 0 3 3 4 5 6 5 6 6 8 7 7 7 7 7 8 6 7 7 6 6 5 3 3
-1 -1 -1 -1 -1 -1 -1 -1 -1 -1 -1 -1 -1 -0 0 1 8 4 1 2 1 2 3 4 5 6 6 7 6 8 7 7 7 7 8 8 7 8 7 6 5 5 5 4 3
-1 -1 -1 -1 -0 -1 -1 -1 -1 -1 -1 -1 -1 -0 2 4 4 3 2 3 3 3 5 5 6 6 7 7 7 8 7 7 7 7 8 8 8 8 7 5 5 6 6 5 3
-1 -1 -1 -0 -0 -0 -1 -1 -1 -1 -1 -1 -1 0 2 6 3 3 4 4 4 4 5 5 6 5 7 7 7 7 7 8 7 8 8 9 8 8 6 5 5 6 6 5 3
-1 -1 -1 -0 -0 -0 -1 -1 -1 -1 -1 -1 -0 2 3 5 3 3 4 4 4 4 5 4 4 6 6 7 7 7 8 8 8 8 8 8 9 9 6 6 6 6 6 5 4
-1 -1 -1 -0 -0 -0 -0 -0 -1 -1 -1 -0 0 2 4 3 3 3 3 4 4 4 4 4 5 6 6 6 7 8 8 9 7 8 8 8 9 6 5 6 6 6 6 6 4
-1 -1 -1 -1 -0 -0 -0 -1 -1 -1 -0 0 2 2 5 3 5 3 3 5 4 4 4 5 5 6 7 8 8 8 10 9 9 8 8 8 8 6 6 7 7 6 6 6 6
-1 -1 -1 -0 -0 -0 -0 -0 -1 1 1 2 2 4 5 6 5 4 3 3 5 4 5 5 6 8 8 9 12 10 10 9 9 9 9 9 9 7 6 7 7 6 6 5 6
-1 -1 -1 -0 -0 -0 -0 0 3 4 3 4 4 5 5 5 4 4 3 4 4 5 8 6 8 9 8 8 8 9 10 10 8 9 9 9 9 8 6 6 7 6 6 6 5
-1 -1 -1 -1 -1 -0 0 3 3 3 6 3 4 4 3 4 5 5 4 6 6 7 7 8 10 7 7 8 8 9 10 9 8 8 10 9 9 7 7 7 6 6 6 5 5
0 -0 -0 -1 -0 0 1 2 1 2 6 6 4 5 4 4 5 5 5 5 7 8 8 8 8 8 8 9 9 9 10 9 9 9 9 10 10 8 6 6 6 6 6 6 5
2 1 -0 -0 2 1 2 1 1 2 9 10 8 5 6 5 7 5 4 5 7 9 8 8 7 9 9 9 9 11 8 9 10 10 13 9 14 9 7 7 6 6 5 5 5
2 2 1 1 1 3 1 -0 0 3 18 8 8 5 6 7 7 7 4 6 8 8 8 9 9 9 10 9 8 10 9 9 10 11 11 11 13 10 8 8 7 5 7 7 6
1 1 2 3 1 1 -0 0 3 10 18 11 8 9 9 8 8 6 6 5 5 8 7 8 7 8 8 9 8 9 9 10 10 11 17 11 12 11 9 8 7 6 6 6 6
1 0 2 2 5 1 0 3 11 15 11 11 10 9 9 10 9 8 8 9 10 12 11 9 9 8 8 9 9 9 10 17 19 19 17 12 12 10 8 7 7 7 7 7 6
0 1 1 1 2 2 3 8 15 12 11 9 9 9 11 9 9 9 9 10 8 8 10 13 17 9 8 8 10 10 10 16 22 18 15 13 14 10 7 7 7 7 7 7 7
2 2 2 1 0 1 6 13 14 12 10 9 9 11 10 10 10 9 9 9 8 8 11 12 12 9 9 8 8 10 13 9 13 11 15 12 10 8 7 8 8 8 8 8 7
3 5 5 0 -1 3 9 12 12 10 10 9 12 9 11 10 11 10 10 8 8 7 6 9 13 10 10 9 9 10 8 13 13 20 17 13 12 11 9 9 8 8 8 7 6
6 7 5 1 1 6 12 10 10 8 8 10 11 11 10 11 10 11 10 9 8 8 6 7 9 12 10 11 11 11 11 11 11 13 18 16 13 8 9 9 8 8 7 7 6
7 12 6 5 9 8 11 9 8 9 7 8 8 9 10 9 10 10 10 9 7 7 10 7 9 12 11 9 9 8 10 10 14 14 13 13 13 8 8 9 9 9 9 8 7
12 11 6 7 12 12 9 9 8 9 9 9 9 8 8 9 11 9 9 8 7 8 9 8 11 14 13 11 10 11 10 9 9 10 13 16 13 8 9 9 9 10 9 8 8
10 14 12 10 11 10 11 10 10 8 8 8 8 8 9 10 8 10 10 9 8 8 8 8 10 12 14 12 10 12 11 10 10 14 13 12 11 10 12 12 11 10 10 9 9
10 13 12 14 14 13 12 13 12 13 11 10 9 9 10 12 10 10 9 10 9 9 8 9 14 11 10 9 10 11 11 10 12 11 14 12 11 13 13 13 13 11 10 10 11
11 11 11 12 13 13 13 14 14 14 14 14 13 13 12 13 13 13 12 10 10 11 10 10 14 13 14 11 11 13 11 11 11 11 11 11 11 12 12 12 13 12 12 12 12
6 6 9 12 12 12 13 12 13 12 13 12 13 14 14 14 12 12 11 11 12 12 13 14 13 14 16 12 13 16 13 12 11 11 13 15 15 14 15 15 14 14 12 13 13